Location: Unspecified
(43.4680°N, 87.1740°E)
Time: 20:55:04
(UTC+00:00)

X-37B - Pass Details

Date: 17 April 2021
Orbit: 386 x 389 km, 45.0° (Epoch: 08 May)

Event Time Altitude Azimuth Distance (km) Brightness Sun altitude
Exits shadow 22:39:54 11° 260° (W) 1,341 2.7 -8.4°
Maximum altitude 22:42:54 80° 348° (NNW) 396 0.6 -7.9°
Drops below altitude 10° 22:46:05 10° 76° (ENE) 1,413 5.1 -7.4°
Sets 22:48:09 0° 78° (ENE) 2,268 6.7 -7.0°
